Temperature
4 5 5 5 5 5 5 5 6 8 9 10 11 12 12 13 13 14 13 13 13 13 14 14 14 14 15 15 15 15 14 14 14 14 13 13 12 12 11 11 11 10 10 10
3 4 5 5 6 6 6 6 7 8 9 11 11 12 12 12 13 12 12 12 12 12 13 13 13 14 14 14 14 14 14 14 14 13 13 12 12 12 11 11 11 10 10 10
2 4 4 4 6 6 7 7 8 8 9 10 10 11 11 11 12 12 11 11 11 12 12 13 13 13 14 14 14 14 14 14 14 13 13 12 12 11 11 11 10 10 10 9
1 2 2 4 7 7 7 8 8 8 9 9 10 11 11 11 11 11 11 11 11 11 12 12 13 13 13 14 14 14 14 13 13 13 12 12 11 11 11 10 10 10 9 9
1 1 3 5 7 7 7 7 7 8 8 9 9 10 11 10 10 10 10 11 11 11 12 12 12 12 13 13 13 13 13 13 13 13 12 12 11 11 10 10 10 9 9 9
1 1 3 5 7 7 7 6 7 7 8 8 8 8 9 10 10 10 10 10 11 11 11 11 12 12 12 13 13 13 13 13 13 12 12 11 11 10 10 10 9 9 9 9
1 1 3 5 6 7 5 5 6 7 7 7 7 8 8 9 9 9 10 10 10 11 11 11 11 12 12 12 13 13 13 12 12 12 11 11 10 10 9 9 9 9 8 8
1 1 2 5 5 5 4 6 6 6 7 7 7 8 8 8 9 9 9 10 10 10 10 11 11 11 11 12 12 12 12 12 11 11 11 10 10 9 9 9 9 8 8 8
2 2 4 5 5 5 6 5 6 6 6 6 6 7 7 7 8 8 9 9 10 10 10 10 10 11 11 11 12 12 12 11 11 10 10 10 9 9 9 8 8 8 8 7
2 3 4 5 5 5 5 5 5 5 5 5 5 6 6 7 7 8 8 9 9 9 9 10 10 10 11 11 12 11 11 11 10 10 10 9 9 9 9 8 8 8 7 7
2 3 4 5 5 5 4 4 4 4 5 5 5 5 5 6 6 7 7 8 9 9 9 9 10 10 10 11 11 11 11 10 10 10 9 9 8 8 8 8 8 8 7 7
2 3 3 3 4 4 4 4 4 4 4 4 4 4 5 5 6 6 7 8 8 9 9 9 9 10 10 11 11 11 10 10 9 9 9 8 8 8 7 8 7 7 7 7
3 4 3 4 4 3 3 3 3 3 3 4 4 4 4 5 6 6 7 7 8 8 8 8 9 9 10 10 10 11 11 10 9 9 8 8 8 8 7 7 6 6 6 6
3 3 2 3 2 2 2 3 3 3 3 3 3 4 4 5 5 6 6 7 7 8 8 8 8 9 10 10 10 10 10 10 9 9 8 8 8 8 7 7 6 6 5 5
1 1 1 1 2 2 2 2 2 2 2 2 3 3 4 4 5 6 6 6 7 7 7 7 8 8 9 9 9 9 9 9 8 8 8 7 7 7 7 6 6 6 5 4
0 0 0 0 1 1 1 1 1 1 2 2 2 3 3 4 4 5 5 6 6 6 7 7 7 8 9 9 9 9 9 8 8 8 7 7 7 7 6 6 6 5 5 4
-1 -1 -1 -0 -0 -0 0 0 1 1 1 1 2 2 3 3 3 4 4 5 5 6 6 7 7 8 8 8 9 9 8 7 7 7 7 7 6 6 6 6 5 5 5 4
-2 -2 -2 -2 -1 -1 -1 -0 0 0 1 1 1 2 2 2 3 3 3 4 4 5 5 6 7 7 7 8 8 8 8 7 7 7 6 6 6 6 6 5 5 5 4 3
-3 -3 -3 -2 -2 -2 -1 -1 -0 0 1 1 1 1 2 2 2 2 3 3 4 4 5 5 6 6 7 7 7 7 7 7 6 6 6 6 5 5 5 5 5 4 4 3
-3 -3 -3 -3 -2 -2 -1 -1 -0 -0 0 1 1 1 1 1 2 2 2 3 3 4 4 4 5 5 6 6 7 7 7 6 6 5 5 5 5 5 5 4 4 3 3 3
-4 -4 -3 -3 -3 -2 -1 -1 -0 -0 0 1 1 1 1 1 2 2 2 2 3 3 3 4 4 5 5 6 6 6 6 6 5 5 5 5 5 4 4 4 3 3 2 2
-5 -4 -4 -4 -3 -2 -2 -1 -1 -0 0 0 1 1 1 1 1 1 1 2 2 3 3 3 4 5 5 5 5 5 5 5 5 5 5 5 4 4 4 3 3 2 2 1
-6 -5 -5 -4 -4 -3 -2 -1 -1 -0 -0 0 0 0 0 0 1 1 1 1 2 2 3 3 4 4 5 5 5 5 5 5 5 5 4 4 4 4 3 3 2 2 1 1
-6 -6 -5 -4 -4 -3 -3 -2 -2 -1 -1 -1 -0 -0 0 0 0 1 1 1 1 2 2 2 3 4 4 4 4 4 4 4 4 4 4 4 3 3 3 2 2 1 1 0
-6 -6 -6 -5 -4 -4 -3 -3 -2 -2 -2 -2 -1 -1 -1 -0 0 0 0 0 1 1 1 2 2 3 4 4 4 4 4 4 4 4 3 3 3 2 2 2 1 1 0 -0
-7 -6 -6 -6 -5 -5 -4 -4 -3 -3 -2 -2 -2 -2 -1 -1 -0 -0 -0 0 0 1 1 1 1 2 3 3 3 3 3 3 2 3 2 2 2 1 1 1 0 -0 -1 -1
-7 -7 -7 -6 -6 -5 -5 -4 -4 -4 -3 -3 -3 -2 -2 -1 -1 -1 -1 -1 -1 -0 -0 0 1 1 1 2 2 2 2 2 2 2 1 1 1 0 0 -0 -0 -1 -1 -2
Wind_Speed
14 15 14 13 14 13 13 11 10 13 15 12 10 9 4 1 2 1 2 5 5 5 5 6 6 7 9 10 11 12 12 13 13 13 13 13 13 13 12 12 12 12 12 12
13 14 14 17 17 16 16 16 16 17 16 10 8 8 4 1 0 0 1 3 4 5 6 6 7 7 7 9 11 12 12 12 11 12 12 12 13 13 12 12 12 12 12 12
10 12 12 13 14 16 15 14 14 15 12 6 7 6 4 1 1 1 1 1 3 5 6 7 7 7 8 8 9 11 12 11 12 13 13 13 13 13 13 13 12 12 12 12
6 7 10 7 6 10 12 12 11 11 10 7 8 8 3 1 0 2 2 2 3 4 5 5 5 6 7 8 9 11 11 12 12 13 13 13 13 13 12 11 12 11 11 11
4 7 10 9 8 9 10 9 6 9 9 7 8 7 4 2 2 3 3 3 3 4 5 6 7 8 7 9 9 10 12 12 12 13 13 14 14 14 12 11 11 10 11 11
6 7 7 5 6 7 7 8 4 6 7 6 5 4 5 6 5 4 3 2 1 1 4 6 7 8 9 10 10 11 12 12 12 12 13 14 13 12 10 11 10 10 10 10
11 9 7 7 7 4 3 4 5 5 5 5 5 6 6 7 6 5 3 2 1 1 4 6 7 9 9 9 10 10 10 11 11 12 12 12 12 11 12 11 11 10 10 8
8 10 9 5 4 2 5 6 6 6 6 7 8 8 7 7 7 6 4 2 1 2 3 5 8 9 9 9 8 10 11 11 12 12 11 11 13 12 12 13 12 11 10 9
7 8 7 6 5 6 7 8 8 7 9 9 10 9 9 8 7 6 5 3 2 2 3 4 7 9 10 9 10 12 13 12 12 12 11 12 13 14 13 12 11 10 9 9
8 9 10 9 9 9 9 10 10 11 11 10 10 10 10 8 7 6 6 4 3 3 4 5 5 7 8 10 11 13 14 13 12 13 12 11 10 11 11 11 11 10 10 9
12 12 12 11 10 10 11 11 12 13 12 10 10 11 10 9 7 7 6 5 4 5 5 6 6 7 8 11 12 13 13 13 12 12 12 11 9 7 9 8 11 12 10 10
12 10 10 11 10 10 13 14 13 13 14 12 10 11 11 10 8 7 7 5 5 5 6 6 6 8 9 11 13 14 13 13 11 11 11 10 11 9 10 10 13 13 13 12
13 12 13 14 13 11 13 14 14 13 13 13 12 11 11 11 9 7 7 6 6 6 6 6 7 9 9 11 12 13 14 13 12 12 12 11 11 12 11 10 13 14 15 15
11 11 14 13 13 13 14 14 14 13 13 12 12 11 10 10 8 7 7 6 6 6 7 7 8 9 10 11 12 12 13 13 13 11 12 11 11 11 11 12 10 7 9 15
11 11 14 15 14 14 13 13 14 13 12 12 11 11 10 9 8 8 6 5 5 6 7 8 9 10 10 12 12 14 13 11 11 11 11 11 11 11 11 11 11 10 8 10
13 13 14 15 15 14 13 13 14 14 12 12 11 10 9 8 7 6 5 5 7 8 8 9 10 10 12 13 13 12 11 15 14 12 12 12 11 11 11 11 11 10 10 9
12 13 13 14 14 15 14 14 13 13 12 12 11 10 8 6 6 5 5 5 5 6 7 9 9 10 12 13 13 12 12 14 16 13 11 11 11 11 11 11 10 9 8 9
12 14 14 15 15 15 15 15 13 13 12 11 9 8 7 7 6 5 4 3 3 4 5 7 9 11 12 13 12 12 12 12 11 12 11 11 11 10 11 11 11 11 9 9
13 14 15 15 15 15 15 13 12 11 10 9 8 7 6 6 5 5 4 5 6 6 5 7 12 13 12 14 14 12 13 13 12 11 11 14 13 10 10 10 10 10 10 8
14 14 15 15 15 14 13 11 10 10 8 7 6 6 6 5 5 5 5 4 4 4 6 10 12 12 13 14 15 12 13 14 14 12 12 11 11 11 10 10 10 10 9 8
15 15 15 13 12 11 10 9 9 8 6 6 6 6 5 5 5 5 6 4 3 6 9 11 10 10 11 14 15 12 13 13 13 12 12 12 11 11 10 10 10 9 9 8
14 13 13 12 11 10 8 6 5 5 4 4 4 5 5 5 5 5 4 4 6 9 8 8 9 13 16 16 12 13 13 13 12 11 11 11 11 11 11 10 9 9 8 8
13 13 12 11 10 8 7 4 2 1 3 3 5 6 6 5 5 6 6 4 6 10 8 8 14 20 21 14 12 13 13 13 12 11 11 11 10 10 10 10 9 9 8 8
12 12 11 10 8 6 5 4 3 3 4 4 4 5 6 6 5 5 6 10 11 12 9 13 20 21 18 11 12 12 12 12 11 11 11 10 10 9 9 9 9 8 8 8
11 11 10 9 7 5 4 4 4 5 6 6 7 7 5 5 7 8 9 10 14 14 11 14 19 18 13 11 11 11 11 11 12 11 11 10 10 10 9 8 8 8 7 7
10 8 7 6 5 4 3 3 4 4 5 7 7 7 7 8 9 9 9 11 13 14 11 10 11 13 11 11 11 12 11 12 12 11 10 10 10 10 9 8 9 7 7 6
8 7 6 5 5 5 4 4 4 5 5 7 8 8 8 9 10 10 11 11 11 11 10 10 10 10 11 11 11 11 10 10 10 10 10 9 9 8 8 9 7 6 6 6
Wind_Direction
272 278 272 264 258 252 242 240 245 258 265 273 281 283 284 314 359 74 130 152 160 170 170 167 169 169 170 170 171 172 173 176 179 176 174 172 171 171 170 170 170 169 169 170
278 276 274 269 258 249 248 246 248 261 267 272 272 280 291 287 196 236 179 162 168 175 170 168 171 170 166 171 169 168 171 173 167 164 165 166 166 165 164 165 165 164 167 169
272 280 282 261 247 243 241 240 240 250 261 284 285 297 283 258 186 242 224 174 191 188 183 179 179 173 173 172 165 165 166 164 163 161 162 163 161 161 163 164 160 161 164 165
268 275 250 248 252 251 251 251 248 261 273 279 287 277 270 280 269 273 262 239 225 200 182 175 170 168 166 163 163 162 161 162 161 160 160 158 159 162 160 159 161 162 162 161
249 256 268 268 261 252 246 251 263 269 279 295 301 283 266 303 297 267 262 253 222 208 181 168 165 163 159 161 161 160 162 163 162 160 159 159 161 161 157 155 155 157 160 159
240 249 254 276 293 278 249 249 291 293 285 295 309 276 276 309 308 298 294 296 270 214 172 166 167 161 161 165 165 168 165 162 159 159 159 160 159 155 150 149 148 147 149 154
238 249 262 287 306 317 231 279 327 294 291 303 280 270 287 304 307 298 285 277 239 200 180 177 167 163 168 170 174 165 153 152 154 156 156 153 149 146 144 142 141 142 140 140
230 239 250 297 323 284 286 310 322 321 312 300 295 301 305 310 309 305 298 280 232 214 195 175 169 169 173 175 161 149 147 150 151 150 148 147 145 144 144 144 143 143 140 135
224 241 271 290 289 292 305 311 313 314 315 315 307 303 301 302 301 299 287 261 232 212 200 181 181 176 175 167 150 147 147 149 148 145 144 147 148 147 147 148 149 150 149 148
256 260 273 283 292 299 304 304 307 308 307 305 302 301 298 295 295 298 294 265 234 203 203 196 189 179 168 155 150 149 150 149 147 145 143 142 144 148 151 155 154 154 155 153
262 270 279 275 281 292 300 303 305 305 301 296 294 292 290 287 281 278 285 268 231 208 211 202 185 171 159 154 151 150 149 149 147 145 143 139 135 139 147 156 161 159 160 156
260 267 273 281 285 293 295 295 296 297 297 296 289 286 286 281 271 264 263 255 234 217 211 198 180 170 163 158 156 153 152 152 150 146 142 137 130 109 91 117 129 134 141 144
267 276 277 282 287 287 286 288 288 286 286 288 285 279 276 275 267 253 248 237 223 209 203 192 179 172 167 162 160 159 157 154 151 148 146 144 141 136 125 100 100 115 129 134
283 285 282 282 284 287 285 286 285 282 281 280 279 277 274 272 264 246 240 229 214 200 195 189 180 177 170 162 158 155 151 151 150 150 148 147 145 142 140 138 131 116 121 132
281 280 280 284 283 281 281 283 282 280 280 280 275 271 267 263 257 249 241 217 203 198 194 186 183 178 166 160 157 154 150 150 147 145 143 142 140 137 136 134 133 131 125 129
292 286 281 279 278 278 278 277 275 275 274 273 271 268 263 259 255 248 232 205 194 198 194 185 184 174 163 158 154 150 148 146 145 144 141 141 140 139 139 139 139 142 145 144
294 290 288 287 283 281 279 277 273 271 270 267 264 261 255 248 245 235 227 215 203 202 194 183 176 165 160 158 153 148 145 145 141 139 143 144 144 144 144 144 145 146 146 152
290 288 288 285 282 281 279 277 271 267 263 262 258 252 242 230 227 224 209 183 169 174 180 173 164 158 156 153 147 144 143 145 145 143 141 142 141 140 141 142 144 142 140 145
302 295 291 288 284 278 275 273 270 265 261 253 245 238 230 225 218 204 180 170 170 172 175 157 152 152 149 147 141 139 139 139 137 136 137 139 136 137 139 141 142 142 143 143
307 303 297 291 285 278 274 270 266 261 254 241 228 221 216 212 198 180 166 178 190 171 153 146 144 144 142 141 137 139 139 140 139 139 138 140 140 140 139 139 139 141 142 144
314 312 307 301 297 290 279 272 264 259 249 227 216 209 200 191 175 163 155 157 151 142 142 141 142 141 139 139 134 137 138 139 140 141 142 141 139 139 139 139 139 141 142 142
318 316 314 311 306 302 297 285 266 249 233 214 195 178 167 161 149 139 136 149 142 140 139 139 138 138 139 134 133 134 134 135 136 137 138 139 140 141 141 141 140 141 142 142
319 317 316 315 310 308 313 313 299 213 186 175 167 161 155 151 146 141 132 134 137 131 129 131 134 134 132 128 129 130 132 132 134 135 136 136 137 139 140 140 140 141 142 142
322 323 323 322 323 326 338 358 29 67 93 104 117 130 134 128 108 99 116 124 124 119 117 126 129 128 125 124 125 127 127 128 128 128 128 128 129 131 134 136 136 136 138 138
324 325 328 333 341 349 4 34 61 75 85 86 82 83 88 100 110 113 115 117 117 112 114 118 118 117 116 117 120 122 124 125 126 127 127 129 130 131 132 133 135 136 137 138
329 332 335 342 348 357 12 42 64 75 88 91 84 82 86 93 101 106 108 106 105 107 109 112 111 108 108 110 112 114 116 119 118 119 122 123 125 126 129 129 128 131 133 133
336 343 350 0 10 17 31 53 71 76 86 97 95 89 91 95 99 101 102 103 103 101 100 99 99 101 104 106 107 107 108 110 113 115 117 118 121 123 126 125 126 126 128 132
Height
1380 1375 1372 1371 1369 1369 1371 1368 1367 1352 1344 1339 1336 1333 1330 1329 1330 1331 1333 1335 1338 1341 1344 1348 1352 1356 1361 1366 1371 1377 1382 1388 1393 1399 1405 1410 1416 1421 1427 1432 1436 1441 1445 1449
1378 1371 1368 1364 1360 1360 1359 1358 1356 1349 1342 1336 1335 1333 1330 1330 1331 1332 1333 1335 1337 1340 1342 1345 1349 1352 1357 1361 1367 1372 1377 1383 1388 1394 1400 1405 1410 1416 1421 1427 1432 1436 1440 1444
1379 1369 1366 1361 1351 1349 1349 1347 1346 1344 1339 1337 1335 1333 1331 1331 1331 1333 1333 1334 1336 1338 1340 1342 1345 1349 1353 1357 1362 1367 1372 1378 1383 1389 1394 1400 1406 1411 1416 1421 1426 1431 1435 1440
1379 1374 1372 1352 1343 1341 1341 1340 1340 1339 1337 1336 1334 1331 1330 1331 1331 1331 1332 1333 1334 1336 1338 1340 1343 1347 1350 1354 1359 1363 1368 1373 1378 1384 1389 1395 1401 1406 1411 1417 1422 1427 1431 1435
1378 1372 1359 1345 1340 1339 1338 1336 1337 1336 1334 1333 1331 1328 1328 1329 1331 1332 1331 1332 1332 1334 1335 1337 1340 1344 1347 1351 1355 1359 1363 1368 1373 1379 1385 1391 1396 1402 1407 1413 1418 1423 1427 1432
1375 1369 1357 1343 1336 1332 1334 1336 1335 1333 1332 1332 1331 1332 1329 1328 1329 1329 1329 1330 1330 1331 1333 1335 1338 1341 1344 1347 1351 1355 1360 1365 1370 1375 1381 1387 1392 1398 1404 1409 1414 1419 1424 1429
1370 1364 1351 1341 1336 1332 1341 1341 1334 1332 1332 1332 1331 1331 1329 1327 1327 1327 1327 1327 1328 1329 1330 1333 1335 1338 1341 1344 1348 1353 1357 1362 1368 1373 1378 1384 1390 1395 1401 1406 1411 1416 1421 1426
1363 1361 1353 1338 1336 1339 1339 1335 1333 1332 1331 1330 1328 1327 1325 1325 1324 1323 1323 1324 1325 1326 1328 1330 1333 1335 1338 1342 1346 1350 1355 1360 1365 1371 1376 1382 1387 1393 1398 1403 1408 1413 1418 1422
1353 1349 1339 1336 1337 1336 1335 1333 1331 1330 1329 1328 1326 1324 1323 1322 1321 1320 1320 1321 1322 1323 1325 1327 1330 1332 1335 1339 1343 1347 1352 1358 1363 1368 1374 1379 1384 1389 1395 1400 1405 1409 1414 1419
1344 1338 1335 1334 1333 1333 1332 1331 1329 1327 1326 1325 1323 1321 1320 1319 1317 1316 1317 1318 1319 1320 1321 1324 1327 1330 1333 1336 1340 1344 1349 1354 1360 1365 1371 1377 1382 1387 1392 1396 1401 1406 1410 1415
1339 1334 1332 1330 1330 1330 1328 1327 1325 1324 1322 1321 1319 1317 1316 1315 1314 1313 1313 1314 1315 1316 1318 1320 1323 1326 1329 1333 1337 1341 1346 1352 1357 1363 1368 1374 1379 1385 1390 1395 1399 1403 1407 1412
1333 1331 1330 1326 1326 1326 1324 1322 1321 1319 1317 1315 1314 1312 1311 1310 1309 1309 1309 1310 1310 1312 1314 1316 1319 1322 1325 1329 1334 1338 1343 1349 1354 1359 1365 1371 1376 1382 1388 1394 1398 1403 1407 1411
1326 1325 1324 1321 1320 1320 1319 1317 1315 1314 1312 1309 1307 1307 1305 1304 1303 1303 1303 1304 1305 1307 1310 1312 1315 1318 1322 1326 1331 1335 1340 1345 1350 1356 1362 1368 1373 1378 1384 1390 1396 1401 1405 1409
1321 1320 1317 1315 1313 1313 1312 1310 1308 1305 1304 1303 1301 1300 1299 1297 1296 1296 1297 1298 1300 1302 1305 1307 1310 1314 1318 1323 1328 1333 1338 1343 1348 1353 1359 1365 1371 1377 1382 1386 1391 1397 1402 1406
1315 1314 1311 1309 1307 1305 1304 1302 1300 1297 1296 1295 1294 1293 1291 1290 1290 1289 1291 1293 1295 1297 1299 1302 1306 1310 1315 1320 1325 1330 1335 1340 1346 1352 1358 1364 1369 1375 1380 1385 1390 1394 1399 1404
1308 1306 1304 1302 1299 1298 1296 1295 1293 1290 1289 1288 1287 1286 1285 1285 1284 1284 1285 1286 1288 1290 1294 1297 1301 1306 1311 1316 1321 1327 1333 1338 1344 1349 1356 1361 1367 1372 1378 1383 1388 1392 1396 1400
1303 1299 1296 1294 1291 1289 1288 1287 1285 1283 1282 1281 1280 1280 1280 1279 1279 1279 1280 1281 1284 1286 1289 1293 1297 1302 1307 1312 1318 1323 1330 1336 1342 1348 1354 1359 1365 1370 1376 1381 1385 1390 1394 1399
1297 1293 1291 1288 1285 1281 1279 1278 1276 1275 1274 1273 1273 1273 1273 1273 1273 1274 1275 1277 1279 1282 1285 1289 1293 1298 1303 1309 1315 1321 1327 1333 1340 1346 1352 1358 1363 1369 1374 1379 1384 1388 1392 1397
1288 1285 1282 1279 1276 1274 1271 1269 1268 1267 1267 1267 1267 1267 1266 1267 1269 1270 1272 1274 1275 1277 1281 1286 1290 1295 1300 1306 1313 1319 1325 1331 1338 1344 1350 1356 1362 1367 1372 1377 1382 1386 1390 1394
1281 1277 1274 1270 1267 1265 1263 1261 1260 1260 1260 1260 1261 1261 1262 1263 1265 1266 1268 1270 1272 1275 1279 1283 1288 1293 1299 1305 1311 1318 1324 1330 1336 1342 1348 1354 1360 1365 1370 1375 1380 1384 1388 1392
1275 1270 1266 1262 1259 1256 1255 1254 1253 1252 1253 1254 1255 1256 1258 1259 1261 1263 1265 1268 1271 1275 1279 1283 1287 1292 1298 1304 1310 1316 1322 1329 1335 1341 1347 1352 1358 1364 1369 1374 1378 1382 1386 1390
1270 1265 1261 1257 1253 1250 1248 1247 1247 1247 1247 1249 1250 1252 1254 1256 1258 1261 1263 1266 1270 1274 1277 1282 1287 1292 1298 1304 1310 1316 1322 1328 1334 1340 1346 1351 1357 1362 1367 1372 1376 1381 1384 1388
1267 1262 1257 1253 1250 1247 1245 1244 1243 1243 1244 1245 1247 1249 1251 1253 1256 1258 1261 1266 1270 1274 1277 1282 1287 1293 1299 1304 1310 1316 1322 1328 1334 1340 1346 1351 1356 1361 1366 1371 1375 1379 1383 1386
1264 1259 1255 1251 1248 1245 1243 1242 1242 1242 1243 1244 1246 1248 1250 1252 1255 1259 1262 1266 1270 1274 1279 1284 1289 1294 1300 1306 1311 1317 1323 1329 1335 1340 1346 1351 1356 1361 1365 1370 1374 1378 1381 1385
1263 1258 1254 1250 1247 1244 1243 1243 1243 1243 1244 1245 1247 1249 1251 1253 1255 1259 1263 1267 1272 1276 1281 1287 1292 1297 1302 1307 1313 1318 1324 1330 1335 1341 1346 1351 1356 1360 1365 1369 1373 1376 1380 1383
1262 1258 1254 1251 1248 1246 1245 1244 1244 1245 1245 1247 1249 1251 1253 1256 1259 1262 1266 1270 1274 1279 1283 1288 1294 1299 1304 1309 1315 1320 1325 1331 1336 1341 1346 1351 1356 1360 1364 1368 1372 1375 1379 1381
1262 1258 1255 1252 1250 1249 1247 1246 1246 1247 1248 1249 1251 1254 1256 1259 1262 1265 1269 1273 1277 1281 1286 1291 1296 1301 1306 1312 1317 1322 1327 1333 1337 1342 1347 1351 1356 1360 1364 1368 1371 1374 1377 1380